Regional Weather Roundup
Issued by NWS Green Bay, WI

Home | Current Version | Previous Version | Text Only | Print | Product List | Glossary On
Versions: 1 2 3 4 5 6 7 8 9 10 11 12 13 14 15 16 17 18 19 20 21 22 23 24 25 26 27 28 29 30 31 32 33 34 35 36 37 38 39 40 41 42 43 44 45 46 47 48 49 50
000
ASUS43 KGRB 221611
RWRGRB

NORTH-CENTRAL AND NORTHEAST WISCONSIN REGIONAL WEATHER ROUNDUP
NATIONAL WEATHER SERVICE GREEN BAY WI
1000 AM CST SUN JAN 22 2017

WIZ005-009-010>012-018-019-221700-
NORTH CENTRAL WISCONSIN

CITY           SKY/WX    TMP DP  RH WIND       PRES   REMARKS
IRONWOOD       FOG       34  34 100 W5        29.64R VSB 1/4
MANITOWISH WTR CLOUDY    33  33 100 CALM      29.62R FOG
ARBOR VITAE    CLOUDY    37  36  98 NW3       29.61R FOG
EAGLE RIVER    FOG       34  34 100 CALM      29.60R VSB 1/2
LAND O LAKES   FOG       36  36 100 CALM      29.62R VSB 1/4
RHINELANDER    FOG       37  37 100 CALM      29.62R VSB 3/4
PHILLIPS       CLOUDY    34  34 100 CALM      29.62R FOG
ANTIGO         FOG       32  32 100 CALM      29.62R VSB 1/4
TOMAHAWK       FOG       35  34  97 CALM      29.62R VSB 3/4
MERRILL        CLOUDY    35  35 100 W3          N/A
$$

WIZ013-073-221700-
NORTHEAST WISCONSIN

CITY           SKY/WX    TMP DP  RH WIND       PRES   REMARKS
IRON MOUNTAIN  CLOUDY    35  32  88 CALM      29.61R FOG
MARINETTE      NOT AVBL
OCONTO         CLOUDY    35  34  99 CALM      29.64R VSB 1/4
$$

WIZ017-030-035>037-045-221700-
CENTRAL WISCONSIN

CITY           SKY/WX    TMP DP  RH WIND       PRES   REMARKS
MEDFORD        FOG       33  33  99 NW3       29.63R VSB 1/4
WAUSAU         CLOUDY    34  34 100 W5        29.62R FOG
MOSINEE        FOG       36  36 100 CALM      29.64R VSB 1/2
MARSHFIELD     FOG       34  32  92 W5        29.63R VSB 1/2
WISC RAPIDS    CLOUDY    36  36 100 NW3       29.65R
STEVENS POINT  CLOUDY    34  34 100 SW3       29.64S FOG
WAUPACA        FOG       38  37  97 CALM      29.65R VSB 1
SHAWANO        CLOUDY    37  37  97 CALM      29.64R FOG
CLINTONVILLE   FOG       36  36 100 CALM      29.64R VSB 1/4
WAUTOMA        NOT AVBL
$$

WIZ038-039-048-051-221700-
FOX VALLEY

CITY           SKY/WX    TMP DP  RH WIND       PRES   REMARKS
NWS GREEN BAY  FOG       38  38 100 SW6       29.65R VSB 1/2
APPLETON       FOG       36  36 100 VRB6      29.62R VSB 1/8
OSHKOSH        FOG       37  37 100 CALM      29.65R VSB<1/4
FOND DU LAC    FOG       38  36  92 CALM      29.65R VSB 1/4
$$

WIZ022-050-052-221700-
EAST CENTRAL WISCONSIN

CITY           SKY/WX    TMP DP  RH WIND       PRES   REMARKS
EPHRAIM        FOG       37  37 100 CALM      29.63R VSB<1/4
WASHINGTON ISL CLOUDY    36  36 100 CALM      29.64R FOG
STURGEON BAY   FOG       37  37 100 CALM      29.65R VSB 1/4
MANITOWOC      CLOUDY    39  38  96 W7        29.65S FOG
SHEBOYGAN      CLOUDY    39  38  96 SW5       29.65S FOG
$$

LMZ563-521-522-541>543-221700-
LAKESHORE

STATION/POSITION TIME  TEMP    WIND        PRES    VSBY  WAVE
                       AIR SEA DIR/SP/G                  HT/PER
                 (UTC) (F)     (DEG/KT/KT) (MB)    (MI)  (FT/S)
SHEBOYGAN LKSHOR 1600   41     250/  5/  6 1004.3R
KEWAUNEE LKSHORE 1548   38     250/  2/  6 1003.6R
NORTHPORT PIER   1540   34      CALM  /  2 1003.7R
SISTER BAY LKSHO 1520   37        CALM       N/A
MENOMINEE LKSHOR 1548          190/  2/  3 1003.0R
$$




USA.gov is the U.S. government's official web portal to all federal, state and local government web resources and services.